Location: *
(53.9002°N, 27.5624°E)
Time: 20:52:55
(UTC+00:00)

Cosmos 1867 - Pass Details

Date: 12 November 2019
Orbit: 776 x 799 km, 65.0° (Epoch: 08 December)

Event Time Altitude Azimuth Distance (km) Brightness Sun altitude
Rises 15:30:34 0° 195° (SSW) 3,284 7.2 -10.9°
Reaches altitude 10° 15:33:06 10° 188° (S) 2,361 6.3 -11.3°
Maximum altitude 15:38:06 39° 121° (ESE) 1,187 4.2 -12.0°
Enters shadow 15:42:00 16° 60° (ENE) 1,989 5.0 -12.5°
